Powrót do katalogu

INTELSAT 33E DEB

AktywnyMEO
NORAD 64402·DEBRIS· XX

Wystrzelony Aug 24, 2016 z Guiana Space Centre

Loading…

Następne Przeloty (najbliższe 24 godziny)

TLE

ŚwieżeSource: Space-Track

Epoka: Sep 13, 2026, 09:00 UTC

1 64402U 16053AG  26256.37558757 -.00000278  00000-0  00000-0 0  9997
2 64402   1.7348  75.4046 0131999 105.0349 257.2925  0.98355564  6734

Śledź INTELSAT 33E DEB w czasie rzeczywistym z AllMySat

Download on the App Store